Simultaneous Nadir Overpasses (SNOs) Predictions

Prediction of SNOs between GOES-15 and METOP-C Satellite Orbit:

Table of predicted SNOs for the next 14.0 days since TLE Epoch: 7/27/2024
Index Date Time (GOES-15) GOES-15 Lat,Lon METOP-C Lat,Lon Distance(km) Time Diff (sec)
1 07/27/2024 05:26:31 0.06, 61.20 0.16, 60.70 56.53 80
2 07/29/2024 17:24:54 -0.05, 61.36 -0.09, 61.10 29.55 80
3 08/01/2024 05:25:50 0.02, 61.31 -0.05, 61.52 24.61 80
4 08/03/2024 17:24:12 -0.00, 61.48 0.08, 61.93 50.01 80
5 08/05/2024 05:40:26 -0.05, 61.41 0.88, 57.35 462.81 80
6 08/06/2024 05:22:28 -0.02, 61.43 -0.24, 62.34 104.07 80
7 08/07/2024 17:38:49 0.07, 61.59 -0.76, 57.74 437.38 80
8 08/08/2024 17:20:49 0.04, 61.61 0.31, 62.75 129.58 80
